Flag for Canada Weather past 2 weeks in Kingston, Ontario, Canada

Now
72 °F

Passing clouds.


Feels Like: 69 °F
Forecast: 68 / 81 °F
Wind: No wind

Location: Kingston

Current Time: Jul 30, 2015 at 2:36:25 AM

Latest Report: Jul 29, 2015 at 11:00 PM


Visibility: 15 mi

Pressure: 29.83 "Hg

Humidity: 88%

Dew point: 68 °F

Location of KingstonLocation

Historic Weather in Kingston — Graph

°F

Kingston temperature yesterday

Maximum temperature yesterday: 81 °F (at 5:00 PM)
Minimum temperature yesterday: 66 °F (at 6:00 AM)
Average temperature yesterday: 75 °F

Past Weeks' High & Low Weather Summary

 TemperatureHumidityPressure
High82 °F (Jul 19, 1:00 PM)100% (Jul 16, 6:00 AM)30.15 "Hg (Jul 16, 6:00 AM)
Low48 °F (Jul 16, 6:00 AM)47% (Jul 22, 5:00 PM)29.59 "Hg (Jul 21, 7:00 AM)
Average70 °F78%29.88 "Hg
* Reported Jul 14 11:00 PM — Jul 29 11:00 PM, Kingston, Weather by CustomWeather, © 2015

Note: Actual official high and low records may vary slightly from our data, if they occured in-between our weather recording intervals... More about our weather records

Advertising

Kingston weather history for previous 24 hours

 ConditionsComfort  
Time TempWeatherWind HumidityBarometerVisibility
11:00 PM
Wed, Jul 29
72 °FPassing clouds.No wind88%29.83 "Hg15 mi
10:00 PM73 °FPassing clouds.2 mph89%29.85 "Hg15 mi
9:00 PM73 °FPassing clouds.2 mph83%29.84 "Hg15 mi
8:00 PM75 °FScattered clouds.3 mph83%29.85 "Hg15 mi
7:00 PM79 °FPartly sunny.5 mph70%29.86 "Hg15 mi
6:00 PM79 °FPartly sunny.7 mph74%29.88 "Hg15 mi
5:00 PM81 °FPartly sunny.10 mph70%29.89 "Hg15 mi
4:00 PM79 °FScattered clouds.9 mph79%29.90 "Hg15 mi
3:00 PM77 °FScattered clouds.8 mph83%29.93 "Hg15 mi
2:00 PM77 °FBroken clouds.9 mph83%29.94 "Hg15 mi
1:00 PM77 °FPartly sunny.9 mph83%29.96 "Hg15 mi
12:00 PM75 °FOvercast.12 mph89%29.97 "Hg15 mi
11:00 AM75 °FPartly sunny.12 mph89%29.98 "Hg15 mi
10:00 AM75 °FPartly sunny.9 mph83%29.97 "Hg15 mi
9:00 AM73 °FPartly sunny.8 mph89%29.97 "Hg15 mi
8:00 AM72 °FPartly sunny.8 mph94%29.97 "Hg15 mi
7:00 AM70 °FPartly sunny.6 mph94%29.96 "Hg15 mi
6:00 AM66 °FPartly cloudy.3 mph94%29.96 "Hg15 mi
Weather by CustomWeather, © 2015

See weather overviewHow to use our weather pages